Flag for Canada Weather past 2 weeks in Shawinigan, Quebec, Canada

Now
2 °F

Frigid.


Feels Like: -11 °F
Forecast: -3 / 11 °F
Wind: 7 mph from North

Location: Shawinigan CS

Current Time: Jan 26, 2015 at 8:32:00 PM

Latest Report: Jan 26, 2015 at 8:00 PM


Visibility: N/A

Pressure: 30.27 "Hg

Humidity: 56%

Dew point: -11 °F

Location of ShawiniganLocation

Historic Weather in Shawinigan — Graph

°F

Shawinigan temperature yesterday

Maximum temperature yesterday: 27 °F (at 1:00 AM)
Minimum temperature yesterday: 1 °F (at 8:00 AM)
Average temperature yesterday: 9 °F

Past Weeks' High & Low Weather Summary

 TemperatureHumidityPressure
High34 °F (Jan 19, 11:00 AM)100% (Jan 19, 12:00 AM)30.78 "Hg (Jan 19, 12:00 AM)
Low-22 °F (Jan 14, 6:00 AM)35% (Jan 17, 4:00 PM)29.21 "Hg (Jan 25, 12:00 AM)
Average7 °F69%30.03 "Hg
* Reported Jan 11 7:00 PM — Jan 26 7:00 PM, Shawinigan, Weather by CustomWeather, © 2014

Note: Actual official high and low records may vary slightly from our data, if they occured in-between our weather recording intervals... More about our weather records

Advertising

Shawinigan weather history for previous 24 hours

 ConditionsComfort  
Time TempWeatherWind HumidityBarometerVisibility
7:00 PM
Jan 26
2 °FFrigid.6 mph54%30.27 "HgN/A
6:00 PM1 °FFrigid.3 mph55%30.26 "HgN/A
5:00 PM5 °FFrigid.2 mph44%30.24 "HgN/A
4:00 PM7 °FFrigid.6 mph41%30.20 "HgN/A
3:00 PM7 °FFrigid.6 mph42%30.21 "HgN/A
2:00 PM7 °FFrigid.3 mph44%30.22 "HgN/A
1:00 PM5 °FFrigid.3 mph43%30.23 "HgN/A
12:00 PM4 °FFrigid.2 mph44%30.24 "HgN/A
11:00 AM2 °FFrigid.1 mph48%30.26 "HgN/A
10:00 AM-3 °FFrigid.3 mph57%30.25 "HgN/A
9:00 AM-8 °FFrigid.5 mph66%30.26 "HgN/A
8:00 AMN/A1 mphN/A30.24 "HgN/A
7:00 AM-11 °FExtremely cold.1 mph75%30.21 "HgN/A
6:00 AM-11 °FExtremely cold.1 mph75%30.18 "HgN/A
5:00 AM-7 °FFrigid.2 mph67%30.16 "HgN/A
4:00 AM-4 °FFrigid.2 mph63%30.13 "HgN/A
3:00 AM-4 °FFrigid.3 mph63%30.12 "HgN/A
2:00 AM-3 °FFrigid.2 mph62%30.12 "HgN/A
1:00 AM-1 °FFrigid.2 mph62%30.10 "HgN/A
12:00 AM1 °FFrigid.3 mph61%30.08 "HgN/A
11:00 PM
Jan 25
2 °FFrigid.5 mph61%30.06 "HgN/A
10:00 PM3 °FFrigid.6 mph61%30.05 "HgN/A
9:00 PM4 °FFrigid.7 mph61%30.01 "HgN/A
8:00 PM4 °FFrigid.3 mph60%29.98 "HgN/A
Weather by CustomWeather, © 2014

See weather overviewHow to use our weather pages